Birmingham, AL

7:01 PM CDT on June 23, 2017 (GMT -0500)
Birmingham International

Weather History for KBHM - November, 2010

Change the Weather History Date:

Wednesday, November 24, 2010

  Actual Average Record
Temperature  
Mean Temperature 59 °F 52 °F  
Max Temperature 66 °F 62 °F 79 °F (1921)
Min Temperature 51 °F 41 °F 13 °F (1970)
Degree Days  
Heating Degree Days 6 14  
Month to date heating degree days 202 244  
Since 1 July heating degree days 272 371  
Growing Degree Days 7 (Base 50)    
Moisture  
Dew Point 56 °F    
Average Humidity 92    
Maximum Humidity 100    
Minimum Humidity 84    
Precipitation  
Precipitation T in 0.18 in 2.13 in (1986)
Month to date precipitation 2.61 3.78  
Year to date precipitation 44.31 48.20  
Snow  
Snow 0.00 in 0.00 in - ()
Month to date snowfall 0.0 0.0  
Since 1 July snowfall 0.0 0.0  
Since 1 September snowfall 0.0 0.0  
Snow Depth 0.00 in    
Sea Level Pressure  
Sea Level Pressure 30.09 in    
Wind  
Wind Speed 5 mph (SE)    
Max Wind Speed 12 mph    
Max Gust Speed 16 mph    
Visibility 8 miles    
Events Rain    
T = Trace of Precipitation, MM = Missing Value Source: NWS Daily Summary

Daily Weather History Graph

Daily Weather History Graph

Search for Another Location

Airport or City:

Trip Planner

Search our weather history database for the weather conditions in past years. The results will help you decide how hot, cold, wet, or windy it might be!

Date:

Astronomy

Nov. 24, 2010 Rise Set
Actual Time 6:26 AM CST 4:40 PM CST
Civil Twilight 6:00 AM CST 5:07 PM CST
Nautical Twilight 5:29 AM CST 5:37 PM CST
Astronomical Twilight 4:59 AM CST 6:07 PM CST
Moon 7:29 PM CST 9:10 AM CST
Length of Visible Light 11h 07m
Length of Day
10h 13m
Waning Gibbous, 90% of the Moon is Illuminated
Nov 24
Waning Gibbous
Nov 28
Last Quarter
Dec 5
New
Dec 13
First Quarter
Dec 21
Full

Hourly Weather History & Observations

Time (CST) Temp. Dew Point Humidity Pressure Visibility Wind Dir Wind Speed Gust Speed Precip Events Conditions
12:53 AM 55.0 °F 52.0 °F 89% 30.14 in 10.0 mi Calm Calm - N/A   Clear
1:53 AM 55.0 °F 52.0 °F 89% 30.14 in 10.0 mi ENE 4.6 mph - N/A   Clear
2:53 AM 53.1 °F 51.1 °F 93% 30.13 in 10.0 mi Calm Calm - N/A   Clear
3:53 AM 53.1 °F 51.1 °F 93% 30.13 in 10.0 mi Calm Calm - N/A   Clear
4:53 AM 52.0 °F 51.1 °F 97% 30.13 in 10.0 mi Calm Calm - N/A   Clear
5:53 AM 51.8 °F 50.0 °F 94% 30.13 in 8.0 mi Calm Calm - N/A   Clear
6:53 AM 52.0 °F 50.0 °F 93% 30.14 in 10.0 mi Calm Calm - N/A   Partly Cloudy
7:49 AM 51.8 °F 50.0 °F 94% 30.17 in 10.0 mi SSE 10.4 mph - N/A   Mostly Cloudy
7:53 AM 52.0 °F 50.0 °F 93% 30.16 in 10.0 mi SE 9.2 mph - N/A   Mostly Cloudy
8:00 AM 51.8 °F 50.0 °F 94% 30.17 in 10.0 mi SE 6.9 mph - N/A   Mostly Cloudy
8:53 AM 55.0 °F 52.0 °F 89% 30.15 in 10.0 mi East 8.1 mph - N/A   Overcast
9:07 AM 55.4 °F 51.8 °F 88% 30.15 in 8.0 mi ESE 8.1 mph - N/A   Overcast
9:53 AM 57.9 °F 54.0 °F 87% 30.14 in 8.0 mi ESE 4.6 mph - N/A   Overcast
10:53 AM 61.0 °F 55.9 °F 83% 30.12 in 8.0 mi SE 5.8 mph - N/A   Overcast
11:49 AM 60.8 °F 55.4 °F 82% 30.12 in 6.0 mi ESE 4.6 mph - N/A   Haze
11:53 AM 61.0 °F 55.9 °F 83% 30.11 in 6.0 mi Variable 3.5 mph - N/A   Haze
12:53 PM 60.1 °F 55.9 °F 86% 30.09 in 8.0 mi East 4.6 mph - N/A   Overcast
1:53 PM 63.0 °F 57.9 °F 84% 30.07 in 5.0 mi SSE 4.6 mph - N/A   Haze
2:53 PM 62.1 °F 57.0 °F 84% 30.05 in 5.0 mi ESE 10.4 mph - N/A   Haze
3:53 PM 62.1 °F 57.9 °F 86% 30.04 in 9.0 mi ESE 4.6 mph - N/A   Overcast
4:53 PM 62.1 °F 59.0 °F 90% 30.04 in 4.0 mi ESE 5.8 mph - N/A   Overcast
5:53 PM 62.1 °F 59.0 °F 90% 30.05 in 8.0 mi ESE 6.9 mph - N/A   Overcast
6:53 PM 62.1 °F 60.1 °F 93% 30.04 in 7.0 mi Variable 3.5 mph - N/A   Overcast
7:38 PM 62.6 °F 60.8 °F 94% 30.04 in 6.0 mi ESE 3.5 mph - N/A   Overcast
7:53 PM 62.1 °F 60.1 °F 93% 30.04 in 6.0 mi ESE 5.8 mph - N/A   Overcast
8:53 PM 62.1 °F 60.1 °F 93% 30.04 in 6.0 mi SE 8.1 mph - N/A   Overcast
9:53 PM 62.1 °F 60.1 °F 93% 30.05 in 5.0 mi South 9.2 mph - N/A   Overcast
10:18 PM 62.6 °F 60.8 °F 94% 30.06 in 8.0 mi South 9.2 mph 16.1 mph 0.00 in Rain Light Rain
10:53 PM 63.0 °F 60.1 °F 90% 30.05 in 10.0 mi SSE 8.1 mph - 0.00 in   Overcast
11:15 PM 62.6 °F 60.8 °F 94% 30.05 in 6.0 mi SSE 6.9 mph - N/A   Overcast
11:48 PM 62.6 °F 60.8 °F 94% 30.05 in 6.0 mi SSE 8.1 mph - N/A   Overcast
11:53 PM 63.0 °F 60.1 °F 90% 30.04 in 6.0 mi SSE 9.2 mph - N/A   Overcast